OPS 4682 DEB, 55115

Orbit data source: Space-Track

OPS 4682 DEB, 55115 is space debris in LEO originally from a launch on Sat, 03 Apr 1965 UTC launched from the Air Force Western Test Range (AFWTR). Debris objects in space refer to the collection of defunct objects orbiting the Earth. Examples of debris include non-operational satellites, rocket bodies, and fragments generated from explosions, collisions, or faulty payload assembly.

Loading next visibility...
Identifier
55115, 1965-027HE
Orbit
LEO
Country
Flag of USUS
Related business
Manufacturer
Unknown
Mission
Spacecraft
Bus & Motor
Unknown
Mass
Unknown
Launch date (UTC)
1965-04-03 (61 years ago)
Launch vehicle
Unknown
Launch site
Air Force Western Test Range (AFWTR)
Object type
Payload
Rocket body
Debris
Shape & HBR
Unknown shape, 1.1 m
Radar Cross Section
Small (<0.1 m²)

Expand to show TLE details & history
Last TLE update: 1 week ago

TLE from 1 week ago
0 OPS 4682 DEB
1 55115U 65027HE  26257.04604026  .00000808  00000-0  26882-2 0  9995
2 55115  90.2393   0.0855 0028640 114.1750 246.2370 12.99168968546796
Epoch: 2026-09-14T01:06Z
TLE epoch observation values (Epoch: 2026-09-14T01:06:17.878Z)
Latitude
-0.00005°
Longitude
-9.52096°
Altitude
1,277.102 km
Speed
7.213 km/s
True Right ascension
00h 00m 20s
True Declination
0° 00' 00"
Sunlit
Object was in full shadow at epoch
Visualization orbit readout
Latitude
Unknown
Longitude
Unknown
Altitude
Unknown
Speed
Unknown
Apparent Right ascension
Unknown
Apparent Declination
Unknown
Sunlit
N/A
Visualization observer readout
Local Sidereal Time
00:08:52
Azimuth
Unknown
Elevation
Unknown
Doppler factor
Unknown
Orbital elements
Apogee altitude
1,284.355 km
Perigee altitude
1,240.59 km
Semi-major axis
7,640.61 km
Eccentricity
0.00286
Inclination
90.2393°
RAAN
0.0855°
Arg. of periapsis
114.175°
True anomaly
245.93707°
Mean anomaly
246.237°
Eccentric anomaly
246.08699°
Mean motion
3.24976 °/min
Orbital period
110.78 mins
BSTAR
0.0026882
Loading maneuver chart data...
Computing Atmospheric mass density...
Loading historical data...
Loading historical data...
Loading historical data...
Loading historical data...
Loading historical data...
Loading historical data...
Loading historical data...

Documentation

Showing up to 5 results
|